Location: Arbon
(43.0005°N, 0.7472°E)
Time: 03:16:53
(UTC+00:00)

Cosmos 2227 Rocket - Pass Details

Date: 07 August 2020
Orbit: 841 x 843 km, 71.0° (Epoch: 27 September)

Event Time Altitude Azimuth Distance (km) Brightness Sun altitude
Exits shadow 03:15:39 15° 271° (W) 2,138 3.9 -16.0°
Maximum altitude 03:18:38 22° 310° (NW) 1,775 3.8 -15.6°
Drops below altitude 10° 03:22:58 10° 360° (N) 2,471 5.2 -15.0°
Sets 03:26:00 0° 16° (NNE) 3,409 6.3 -14.6°
